Location: Newark
(45.2500°N, 7.5833°E)
Time: 00:52:00
(UTC+00:00)

Vanguard 3 - Pass Details

Date: 04 February 2020
Orbit: 508 x 3263 km, 33.3° (Epoch: 25 February)

Event Time Altitude Azimuth Distance (km) Brightness Sun altitude
Rises 16:37:30 0° 260° (W) 6,381 13.9 -0.4°
Reaches altitude 10° 16:41:25 10° 256° (WSW) 5,631 13.5 -1.0°
Maximum altitude 16:59:12 57° 185° (S) 3,652 10.6 -3.9°
Drops below altitude 10° 17:17:14 10° 114° (ESE) 5,692 11.0 -7.0°
Sets 17:21:13 0° 110° (ESE) 6,452 11.2 -7.6°
